Location: Appleton
(44.2618°N, 88.4157°W)
Time: 16:01:20
(UTC+00:00)

Explorer 11/Cluster Stage 4 - Visible Passes

Search period start: 27 February 2021 00:00
Search period end: 09 March 2021 00:00
Orbit: 467 x 1257 km, 28.8° (Epoch: 27 February)

Date Brightness Start Highest point End Pass type
(mag) Time Alt. Az. Time Alt. Az. Time Alt. Az.
27 Feb 9.5 10:09:08 10° S 10:11:22 11° SSE 10:13:40 10° SE visible
27 Feb 9.3 11:53:26 10° SW 11:59:10 22° SSE 12:05:10 10° ESE visible
28 Feb 9.4 09:57:16 10° S 10:00:04 12° SSE 10:03:00 10° SE visible
28 Feb 9.1 11:42:09 10° SW 11:47:52 23° SSE 11:53:56 10° ESE visible
01 Mar 9.2 09:47:01 12° S 09:48:46 13° SSE 09:52:06 10° SE visible
01 Mar 9.0 11:30:55 10° SW 11:36:35 23° S 11:42:40 10° ESE visible
02 Mar 9.1 09:36:47 14° SSE 09:37:30 14° SSE 09:41:04 10° SE visible
02 Mar 8.9 11:19:46 10° SW 11:25:18 24° S 11:31:21 10° ESE visible
03 Mar 9.1 09:26:29 15° SSE 09:26:29 15° SSE 09:29:57 10° SE visible
03 Mar 8.9 11:08:39 10° SW 11:14:02 23° S 11:19:59 10° SE visible
04 Mar 9.1 09:16:11 14° SSE 09:16:11 14° SSE 09:18:46 10° SE visible
04 Mar 8.8 10:58:18 12° SW 11:02:47 23° S 11:08:35 10° SE visible
05 Mar 9.2 09:05:51 13° SE 09:05:51 13° SE 09:07:32 10° SE visible
05 Mar 8.7 10:47:58 15° SW 10:51:33 22° S 10:57:09 10° SE visible
06 Mar 9.3 08:55:32 12° SE 08:55:32 12° SE 08:56:16 10° SE visible
06 Mar 8.5 10:37:39 17° SSW 10:40:21 21° S 10:45:40 10° SE visible
07 Mar 8.5 10:27:21 18° SSW 10:29:10 20° S 10:34:09 10° SE visible
08 Mar 8.5 10:17:04 18° SSW 10:18:00 19° S 10:22:35 10° SE visible
